Station WDSV2 - 8638614 - Willoughby Deguassing Station, VA Image indicating link to RSS feed of recent meteorological observations for station WDSV2


Conditions at WDSV2 as of
(8:30 pm EDT on 07/17/2024)
0030 GMT on 07/18/2024:
     

Click on the graph icon in the table below to see a time series plot of the last five days of that observation.

5-day plot - Wind Direction Wind Direction (WDIR):WSW ( 250 deg true )
5-day plot - Wind Speed Wind Speed (WSPD): 11.1 kts
5-day plot - Wind Gust Wind Gust (GST): 15.9 kts
5-day plot - Atmospheric Pressure Atmospheric Pressure (PRES):29.87 in
5-day plot - Air Temperature Air Temperature (ATMP): 80.4 °F
5-day plot - Wind Speed at 10 Meters Wind Speed at 10 meters (WSPD10M): 11.7 kts
5-day plot - Wind Speed at 20 Meters Wind Speed at 20 meters (WSPD20M): 13.6 kts
5-day plot -  Wind Speed, Wind Gust and Atmospheric Pressure Combined plot of Wind Speed, Gust, and Air Pressure
NOS Water Level Observation Network Water Level
Previous observations
TIME
(EDT)
5-day plot - Wind Direction
WDIR
 
5-day plot - Wind Speed
WSPD
kts
5-day plot - Wind Gust
GST
kts
5-day plot - Wave Height
WVHT
ft
5-day plot - Dominant Wave Period
DPD
sec
5-day plot - Average Wave Period
APD
sec
5-day plot - Mean Wave Direction
MWD
 
5-day plot - Atmospheric Pressure
PRES
in
5-day plot - Pressure Tendency
PTDY
in
5-day plot - Air Temperature
ATMP
°F
5-day plot - Water Temperature
WTMP
°F
5-day plot - Dew Point
DEWP
°F
5-day plot - Salinity
SAL
psu
5-day plot - Visibility
VIS
nmi
5-day plot - Tide (above MLLW)
TIDE
ft
2024-07-17 08:24 pmWSW 11.1 15.0----29.87- 80.4-----
2024-07-17 08:18 pmWSW 13.0 15.9----29.87- 80.6-----
2024-07-17 08:12 pm SW 14.0 18.1----29.86- 80.8-----
2024-07-17 08:06 pm SW 14.0 18.1----29.85- 80.8-----
2024-07-17 08:00 pm SW 17.1 21.0----29.85-0.01 80.8-----
2024-07-17 07:54 pm SW 18.1 20.0----29.85- 80.8-----
2024-07-17 07:48 pm SW 17.1 22.9----29.85- 81.1-----
2024-07-17 07:42 pm SW 15.9 22.0----29.85- 81.1-----
2024-07-17 07:36 pmSSW 18.1 19.0----29.85- 81.1-----
2024-07-17 07:30 pm SW 15.9 19.0----29.85- 81.3-----
2024-07-17 07:24 pm SW 18.1 21.0----29.85- 81.5-----
2024-07-17 07:18 pm SW 18.1 21.0------------
2024-07-17 07:12 pm SW 15.9 21.0------------
2024-07-17 07:06 pm SW 19.0 21.0------------
2024-07-17 07:00 pm SW 17.1 19.0------------
2024-07-17 06:54 pm SW 17.1 19.0------------
2024-07-17 06:48 pm SW 17.1 24.1----29.85- 82.8-----
2024-07-17 06:42 pm SW 17.1 20.0----29.85- 82.8-----
2024-07-17 06:36 pm SW 17.1 24.1----29.85- 82.6-----
2024-07-17 06:30 pmSSW 18.1 24.1----29.85- 82.8-----
2024-07-17 06:24 pmSSW 20.0 24.1----29.85- 82.8-----
2024-07-17 06:18 pm-------29.85-------
2024-07-17 06:12 pm-------29.85-------
2024-07-17 06:06 pm-------29.85-------
2024-07-17 06:00 pmSSW 15.9 18.1------ 81.7-----
2024-07-17 05:54 pmSSW 13.0 15.9------ 81.1-----
2024-07-17 05:48 pm SW 14.0 17.1----29.85- 80.8-----
2024-07-17 05:42 pm SW 15.0 19.0----29.85- 80.8-----
2024-07-17 05:36 pmSSW 17.1 20.0----29.85- 80.8-----
2024-07-17 05:30 pm SW 19.0 22.0----29.85- 81.0-----
2024-07-17 05:24 pm SW 19.0 22.0----29.86- 81.0-----
2024-07-17 05:18 pm SW 19.0 25.1----29.86- 81.0-----
2024-07-17 05:12 pm SW 25.1 35.0----29.87- 79.5-----
2024-07-17 05:06 pmSSW 25.1 39.0----29.86- 80.8-----
2024-07-17 05:00 pm SW 26.0 36.9----29.86-0.03 79.0-----
2024-07-17 04:54 pm SW 22.0 42.0----29.87- 80.4-----
2024-07-17 04:48 pmSSW 27.0 36.9----29.84- 87.8-----
2024-07-17 04:42 pmSSW 20.0 27.0----29.83- 88.7-----
2024-07-17 04:36 pmSSW 21.0 26.0----29.84- 90.0-----
2024-07-17 04:30 pmSSW 21.0 25.1----29.85- 90.3-----
2024-07-17 04:24 pmSSW 18.1 22.0----29.85- 90.3-----
2024-07-17 04:18 pmSSW 19.0 22.0----29.85- 90.7-----
2024-07-17 04:12 pmSSW 17.1 20.0----29.85- 90.5-----
2024-07-17 04:06 pmSSW 19.0 24.1----29.85- 90.3-----
2024-07-17 04:00 pmSSW 15.9 22.9----29.85-0.06 90.3-----
2024-07-17 03:54 pm SW 18.1 21.0----29.85- 90.5-----
2024-07-17 03:48 pm SW 15.9 20.0----29.85- 90.3-----
2024-07-17 03:42 pm SW 18.1 22.0----29.86- 90.5-----
2024-07-17 03:36 pm SW 15.0 21.0----29.86- 90.3-----
2024-07-17 03:30 pmSSW 17.1 19.0----29.86- 90.3-----
2024-07-17 03:24 pm SW 15.0 18.1----29.87- 90.1-----
2024-07-17 03:18 pm SW 13.0 17.1----29.88- 89.6-----
2024-07-17 03:12 pm SW 15.0 18.1----29.88- 89.8-----
2024-07-17 03:06 pm SW 13.0 18.1----29.88- 90.0-----
2024-07-17 03:00 pm SW 15.0 19.0----29.88-0.04 90.0-----
2024-07-17 02:54 pm SW 14.0 18.1----29.89- 89.4-----
2024-07-17 02:48 pm SW 15.9 18.1----29.89-------
2024-07-17 02:42 pm SW 14.0 20.0----29.89-------
2024-07-17 02:36 pm SW 15.9 19.0----29.89-------
2024-07-17 02:30 pm SW 13.0 18.1----29.89- 88.9-----
2024-07-17 02:24 pm SW 14.0 17.1----29.89- 89.1-----
2024-07-17 02:18 pm SW 14.0 18.1----29.89- 88.7-----
2024-07-17 02:12 pm SW 15.0 18.1----29.89- 88.5-----
2024-07-17 02:06 pmWSW 12.0 15.0----29.89- 87.4-----
2024-07-17 02:00 pmWSW 14.0 18.1----29.89-0.04 88.0-----
2024-07-17 01:54 pm SW 13.0 18.1----29.89- 88.3-----
2024-07-17 01:48 pm SW 14.0 17.1----29.90- 87.8-----
2024-07-17 01:42 pm SW 12.0 15.0----29.90- 88.3-----
2024-07-17 01:36 pm SW 12.0 15.0----29.91- 87.8-----
2024-07-17 01:30 pm SW 11.1 13.0----29.91- 87.8-----
2024-07-17 01:24 pm SW 9.9 12.0----29.91- 87.3-----
2024-07-17 01:18 pmWSW 11.1 12.0----29.91- 87.1-----
2024-07-17 01:12 pmWSW 8.9 9.9----29.91- 86.5-----
2024-07-17 01:06 pmWSW 9.9 12.0----29.91- 86.4-----
2024-07-17 01:00 pmWSW 8.0 11.1----29.92-0.02 85.5-----
2024-07-17 12:54 pmWSW 11.1 11.1----29.92- 85.6-----
2024-07-17 12:48 pmWSW 8.9 11.1----29.92- 85.6-----
2024-07-17 12:42 pmWSW 8.9 9.9----29.92- 85.3-----
2024-07-17 12:36 pmWSW 8.0 9.9----29.92- 84.4-----
2024-07-17 12:30 pmWSW 8.9 11.1----29.92- 84.4-----
2024-07-17 12:24 pmWSW 9.9 13.0----29.93- 84.2-----
2024-07-17 12:18 pmWSW 13.0 15.0----29.92- 84.6-----
2024-07-17 12:12 pmWSW 12.0 14.0----29.92- 84.6-----
2024-07-17 12:06 pmWSW 12.0 13.0----29.93- 84.4-----
2024-07-17 12:00 pmWSW 11.1 12.0----29.93-0.01 84.4-----
2024-07-17 11:54 amWSW 11.1 12.0----29.93- 84.0-----
2024-07-17 11:48 amWSW 9.9 12.0----29.93- 83.8-----
2024-07-17 11:42 amWSW 12.0 14.0----29.93- 83.8-----
2024-07-17 11:36 amWSW 13.0 14.0----29.93- 83.8-----
2024-07-17 11:30 amWSW 12.0 14.0----29.93- 83.5-----
2024-07-17 11:24 am SW 12.0 14.0----29.93- 83.7-----
2024-07-17 11:18 amWSW 12.0 13.0----29.93- 83.3-----
2024-07-17 11:12 amWSW 11.1 13.0----29.94- 83.1-----
2024-07-17 11:06 amWSW 12.0 14.0----29.93- 83.1-----
2024-07-17 11:00 amWSW 12.0 14.0----29.93+0.00 82.8-----
2024-07-17 10:54 amWSW 12.0 13.0----29.93- 82.9-----
2024-07-17 10:48 amWSW 13.0 14.0----29.93- 82.8-----
2024-07-17 10:42 amWSW 11.1 13.0----29.94- 82.9-----
2024-07-17 10:36 amWSW 11.1 14.0----29.94- 82.8-----
2024-07-17 10:30 am SW 13.0 17.1----29.94- 82.8-----
2024-07-17 10:24 am SW 14.0 15.9----29.93- 82.8-----
2024-07-17 10:18 amWSW 13.0 14.0----29.93- 82.4-----
2024-07-17 10:12 amWSW 13.0 14.0----29.94- 82.6-----
2024-07-17 10:06 amWSW 13.0 14.0----29.94- 82.0-----
2024-07-17 10:00 amWSW 14.0 17.1----29.93+0.02 82.0-----
2024-07-17 09:54 amWSW 15.0 15.9----29.93- 82.0-----
2024-07-17 09:48 amWSW 14.0 15.9----29.93-------
2024-07-17 09:42 amWSW 13.0 14.0----29.94-------
2024-07-17 09:36 amWSW 13.0 15.0----29.94-------
2024-07-17 09:30 amWSW 15.9 18.1----29.94- 81.3-----
2024-07-17 09:24 amWSW 15.0 17.1----29.94- 81.1-----
2024-07-17 09:18 amWSW 15.0 15.9----29.94- 81.0-----
2024-07-17 09:12 amWSW 13.0 17.1----29.94- 81.1-----
2024-07-17 09:06 amWSW 15.0 18.1----29.94- 81.0-----
2024-07-17 09:00 amWSW 14.0 15.9----29.94+0.05 81.0-----
2024-07-17 08:54 amWSW 13.0 15.0----29.94- 81.0-----
2024-07-17 08:48 amWSW 13.0 15.0----29.94- 81.0-----
2024-07-17 08:42 amWSW 13.0 15.0----29.94- 80.8-----
2024-07-17 08:36 amWSW 14.0 17.1----29.94- 80.8-----
2024-07-17 08:30 amWSW 15.0 19.0----29.93- 80.6-----
2024-07-17 08:24 amWSW 15.0 18.1----29.93- 80.4-----
2024-07-17 08:18 amWSW 15.0 18.1----29.93- 80.4-----
2024-07-17 08:12 amWSW 14.0 18.1----29.93- 80.2-----
2024-07-17 08:06 amWSW 14.0 18.1----29.93- 80.1-----
2024-07-17 08:00 amWSW 15.0 19.0----29.93+0.05 79.9-----
2024-07-17 07:54 amWSW 15.9 19.0----29.93- 79.9-----
2024-07-17 07:48 am SW 17.1 19.0----29.93- 79.9-----
2024-07-17 07:42 am SW 17.1 20.0----29.92- 79.9-----
2024-07-17 07:36 am SW 17.1 21.0----29.92- 79.9-----
2024-07-17 07:30 am SW 17.1 20.0----29.92- 79.9-----
2024-07-17 07:24 am SW 17.1 20.0----29.92- 79.9-----
2024-07-17 07:18 am SW 17.1 20.0----29.92- 80.1-----
2024-07-17 07:12 am SW 15.9 19.0----29.91- 80.1-----
2024-07-17 07:06 am SW 17.1 19.0----29.91- 80.1-----
2024-07-17 07:00 am SW 15.9 21.0----29.91+0.04 79.9-----
2024-07-17 06:54 am SW 18.1 20.0----29.91- 79.9-----
2024-07-17 06:48 am SW 15.9 19.0----29.91- 80.1-----
2024-07-17 06:42 am SW 15.9 20.0----29.90- 80.1-----
2024-07-17 06:36 am SW 15.9 20.0----29.90- 80.1-----
2024-07-17 06:30 am SW 18.1 20.0----29.90- 80.2-----
2024-07-17 06:24 am SW 17.1 21.0----29.90- 80.2-----
2024-07-17 06:18 am SW 17.1 20.0----29.89- 80.2-----
2024-07-17 06:12 am SW 18.1 22.0----29.89- 80.4-----
2024-07-17 06:06 am SW 18.1 21.0----29.89- 80.4-----
2024-07-17 06:00 am SW 17.1 20.0----29.89+0.02 80.6-----
2024-07-17 05:54 amWSW 15.9 18.1----29.88- 80.6-----
2024-07-17 05:48 amWSW 15.9 20.0----29.88- 80.8-----
2024-07-17 05:42 amWSW 15.0 18.1----29.88- 80.8-----
2024-07-17 05:36 amWSW 15.0 18.1----29.88- 80.8-----
2024-07-17 05:30 amWSW 15.0 19.0----29.88- 81.0-----
2024-07-17 05:24 am SW 15.9 20.0----29.88- 81.0-----
2024-07-17 05:18 am SW 15.0 19.0----29.88- 81.0-----
2024-07-17 05:12 am SW 14.0 18.1----29.88- 81.1-----
2024-07-17 05:06 am SW 13.0 15.9----29.88- 81.3-----
2024-07-17 05:00 am SW 14.0 17.1----29.88+0.00 81.3-----
2024-07-17 04:54 am SW 14.0 18.1----29.88- 81.5-----
2024-07-17 04:48 am SW 14.0 17.1----29.88- 81.5-----
2024-07-17 04:42 amWSW 13.0 15.9----29.88- 81.5-----
2024-07-17 04:36 am SW 13.0 18.1----29.87- 81.7-----
2024-07-17 04:30 am SW 15.0 17.1----29.87- 81.7-----
2024-07-17 04:24 amWSW 14.0 17.1----29.87- 81.7-----
2024-07-17 04:18 amWSW 12.0 15.0----29.87- 81.9-----
2024-07-17 04:12 amWSW 13.0 17.1----29.87- 82.0-----
2024-07-17 04:06 amWSW 15.0 17.1----29.87- 82.2-----
2024-07-17 04:00 amWSW 13.0 17.1----29.87-0.01 82.0-----
2024-07-17 03:54 amWSW 14.0 19.0----29.87- 82.2-----
2024-07-17 03:48 amWSW 13.0 17.1----29.87- 82.2-----
2024-07-17 03:42 amWSW 12.0 17.1----29.87- 82.4-----
2024-07-17 03:36 amWSW 14.0 17.1----29.87- 82.4-----
2024-07-17 03:30 amWSW 13.0 15.9----29.87- 82.6-----
2024-07-17 03:24 amWSW 12.0 17.1----29.87- 82.6-----
2024-07-17 03:18 amWSW 15.0 19.0----29.87- 82.9-----
2024-07-17 03:12 amWSW 13.0 17.1----29.87- 82.8-----
2024-07-17 03:06 amWSW 17.1 19.0----29.87- 83.1-----
2024-07-17 03:00 am SW 15.0 20.0----29.87-0.02 83.3-----
2024-07-17 02:54 am SW 15.9 20.0----29.87- 83.5-----
2024-07-17 02:48 am SW 17.1 20.0----29.87- 83.7-----
2024-07-17 02:42 am SW 18.1 21.0----29.87- 83.7-----
2024-07-17 02:36 am SW 15.9 19.0----29.87- 83.7-----
2024-07-17 02:30 am SW 15.0 18.1----29.87- 83.8-----
2024-07-17 02:24 amWSW 15.0 19.0----29.88- 83.8-----
2024-07-17 02:18 amWSW 14.0 18.1----29.88- 83.8-----
2024-07-17 02:12 amWSW 14.0 17.1----29.88- 84.0-----
2024-07-17 02:06 am SW 14.0 18.1----29.88- 84.2-----
2024-07-17 02:00 am SW 15.0 17.1----29.88+0.00 84.4-----
2024-07-17 01:54 am SW 15.9 19.0----29.88- 84.4-----
2024-07-17 01:48 am SW 15.9 20.0----29.88-------
2024-07-17 01:42 amWSW 17.1 20.0----29.88-------
2024-07-17 01:36 am SW 17.1 20.0----29.89-------
2024-07-17 01:30 am SW 15.9 19.0----29.89- 84.6-----
2024-07-17 01:24 am SW 17.1 20.0----29.89- 84.6-----
2024-07-17 01:18 am SW 18.1 21.0----29.88- 84.9-----
2024-07-17 01:12 am SW 17.1 20.0----29.89- 84.9-----
2024-07-17 01:06 am SW 19.0 22.0----29.89- 85.1-----
2024-07-17 01:00 am SW 17.1 20.0----29.88+0.00 85.1-----
2024-07-17 12:54 am SW 17.1 20.0----29.88- 85.1-----
2024-07-17 12:48 am SW 15.0 19.0----29.89- 85.1-----
2024-07-17 12:42 am SW 15.9 20.0----29.89- 85.1-----
2024-07-17 12:36 am SW 18.1 22.9----29.89- 85.5-----
2024-07-17 12:30 am SW 17.1 25.1----29.89- 85.5-----
2024-07-17 12:24 am SW 19.0 22.9----29.88- 85.6-----
2024-07-17 12:18 am SW 17.1 22.0----29.89-------
2024-07-17 12:12 am SW 17.1 22.0----29.88-------
2024-07-17 12:06 am SW 18.1 22.0----29.89-------
2024-07-17 12:00 am SW 15.0 20.0----29.89+0.01 85.5-----
2024-07-16 11:54 pm SW 15.0 22.0----29.88- 85.5-----
2024-07-16 11:48 pm SW 15.9 19.0----29.88- 85.6-----
2024-07-16 11:42 pm SW 15.9 20.0----29.88- 85.5-----
2024-07-16 11:36 pm SW 15.9 19.0----29.88- 85.6-----
2024-07-16 11:30 pm SW 15.0 18.1----29.88- 85.5-----
2024-07-16 11:24 pm SW 15.0 18.1----29.88- 85.5-----
2024-07-16 11:18 pm SW 15.0 18.1----29.88- 85.6-----
2024-07-16 11:12 pm SW 15.0 18.1----29.88- 85.8-----
2024-07-16 11:06 pm SW 13.0 17.1----29.88- 86.2-----
2024-07-16 11:00 pm SW 14.0 15.9----29.88+0.02 86.5-----
2024-07-16 10:54 pm SW 15.0 17.1----29.88- 86.5-----
2024-07-16 10:48 pm SW 14.0 17.1----29.88- 86.7-----
2024-07-16 10:42 pm SW 15.0 17.1----29.88- 86.7-----
2024-07-16 10:36 pm SW 12.0 15.9----29.88- 86.7-----
2024-07-16 10:30 pm SW 13.0 15.0----29.88- 86.9-----
2024-07-16 10:24 pm SW 12.0 14.0----29.89- 87.1-----
2024-07-16 10:18 pm SW 14.0 17.1----29.89- 87.6-----
2024-07-16 10:12 pm SW 13.0 15.9----29.89- 87.4-----
2024-07-16 10:06 pm SW 13.0 17.1----29.88- 87.6-----
2024-07-16 10:00 pm SW 13.0 17.1----29.88- 87.6-----
2024-07-16 09:54 pm SW 15.0 18.1----29.88- 88.2-----
2024-07-16 09:48 pm SW 13.0 17.1----29.88- 88.2-----
2024-07-16 09:42 pmWSW 12.0 15.9----29.88- 88.2-----
2024-07-16 09:36 pm SW 15.0 15.9----29.87- 88.5-----
2024-07-16 09:30 pm SW 13.0 17.1----29.87- 88.2-----
2024-07-16 09:24 pm SW 13.0 15.9----29.88- 88.3-----
2024-07-16 09:18 pm SW 12.0 15.0----29.88- 88.3-----
2024-07-16 09:12 pm SW 14.0 15.9----29.88- 88.7-----
2024-07-16 09:06 pm SW 11.1 15.9----29.88- 88.7-----
2024-07-16 09:00 pmWSW 11.1 15.0----29.87+0.02 88.7-----
2024-07-16 08:54 pm SW 12.0 14.0----29.87- 88.9-----